This is the latest recevied weather packets stored in our database for station/object K1TTC. If no packets are shown the sender has not sent any weather packets the latest 10 day(s).
| Time | Temp. | Humidity | Pressure | Rain* | Wind** | Luminosity | Snow |
|---|---|---|---|---|---|---|---|
| 1777314722 | 21.11° C | 30% | 1026 hPa | 0 mm | - | 812 W/m² | - |
| 1777314121 | 21.67° C | 29% | 1026 hPa | 0 mm | - | 793 W/m² | - |
| 1777313521 | 21.67° C | 28% | 1026.1 hPa | 0 mm | - | 846 W/m² | - |
| 1777312922 | 21.67° C | 28% | 1026.1 hPa | 0 mm | - | 856 W/m² | - |
| 1777312320 | 21.67° C | 29% | 1026.2 hPa | 0 mm | - | 867 W/m² | - |
| 1777311744 | 21.11° C | 30% | 1026.2 hPa | 0 mm | - | 881 W/m² | - |
| 1777311122 | 21.11° C | 29% | 1026.1 hPa | 0 mm | - | 889 W/m² | - |
| 1777310521 | 21.11° C | 29% | 1026.1 hPa | 0 mm | - | 896 W/m² | - |
| 1777309928 | 21.67° C | 30% | 1026 hPa | 0 mm | - | 905 W/m² | - |
| 1777309340 | 21.11° C | 29% | 1026.2 hPa | 0 mm | - | 911 W/m² | - |
| 1777308858 | 20.56° C | 31% | 1026.3 hPa | 0 mm | - | 909 W/m² | - |
| 1777308130 | 20.56° C | 29% | 1026.4 hPa | 0 mm | - | 911 W/m² | - |
| 1777307516 | 20.56° C | 29% | 1026.5 hPa | 0 mm | - | 914 W/m² | - |
| 1777306913 | 20.56° C | 28% | 1026.5 hPa | 0 mm | - | 912 W/m² | - |
| 1777306312 | 20° C | 30% | 1026.4 hPa | 0 mm | - | 907 W/m² | - |
| 1777305709 | 20° C | 31% | 1026.4 hPa | 0 mm | - | 907 W/m² | - |
| 1777305113 | 20° C | 30% | 1026.6 hPa | 0 mm | - | 902 W/m² | - |
| 1777304508 | 19.44° C | 29% | 1026.6 hPa | 0 mm | - | 893 W/m² | - |
| 1777303908 | 19.44° C | 31% | 1026.7 hPa | 0 mm | - | 881 W/m² | - |
| 1777303310 | 18.89° C | 32% | 1026.7 hPa | 0 mm | - | 868 W/m² | - |
| 1777302713 | 18.89° C | 32% | 1026.8 hPa | 0 mm | - | 856 W/m² | - |
| 1777302114 | 18.33° C | 33% | 1026.9 hPa | 0 mm | - | 842 W/m² | - |
| 1777301513 | 18.33° C | 34% | 1026.9 hPa | 0 mm | - | 826 W/m² | - |
| 1777300911 | 18.33° C | 35% | 1027.1 hPa | 0 mm | - | 810 W/m² | - |
| 1777300315 | 17.78° C | 36% | 1027 hPa | 0 mm | - | 793 W/m² | - |
* Rain latest hour (hover to see other rain measurements)
** Current wind speed in m/s (hover to see current wind gust speed)